Location: Grieser Field
(39.7333°N, 81.7975°W)
Time: 07:44:19
(UTC-04:00)

Daily predictions for brighter satellites

Satellite Brightness Start Highest point End
(mag) Time Altitude Azimuth Time Altitude Azimuth Time Altitude Azimuth
Cosmos 2228 Rocket 3.1 21:27:26 10° N 21:31:55 83° E 21:36:26 10° S
Cosmos 1743 Rocket 3.6 21:29:52 10° S 21:34:19 79° E 21:38:48 10° N
Cosmos 1980 Rocket 3.7 21:29:25 10° NW 21:34:31 35° WSW 21:39:36 10° SSW
SL-16 R/B 2.3 21:29:24 10° NNW 21:35:07 84° ENE 21:40:48 10° SSE
Cosmos 2360 Rocket 3.2 21:30:05 10° N 21:35:11 34° ENE 21:40:16 10° ESE
Cosmos 2221 4.4 21:34:08 10° NNW 21:37:54 30° W 21:41:38 10° SSW
In-Cosmos 22 4.3 21:32:29 10° S 21:38:14 78° E 21:44:01 10° NNE
Cosmos 968 Rocket 3.6 21:33:38 10° SSW 21:38:49 85° WNW 21:44:04 10° NNE
Cosmos 1500 Rocket 3.6 21:36:26 10° S 21:40:43 61° E 21:45:04 10° NNE
ATLAS CENTAUR R/B 2.5 21:36:41 10° NW 21:40:57 42° WSW 21:44:51 10° S
Cosmos 1908 4.0 21:38:55 10° N 21:42:34 37° ENE 21:46:12 10° SSE
Cosmos 371 Rocket 3.6 21:41:25 10° NNW 21:46:13 69° WSW 21:50:58 10° S
deb Chang Zheng 4 3.5 21:43:55 10° NNE 21:48:16 81° ESE 21:52:35 10° S
ALOS 4.0 21:47:04 10° SSW 21:51:12 31° W 21:55:23 10° NNW
USA 186 4.1 21:50:44 10° SW 21:52:04 14° W 21:53:26 10° WNW
Cosmos 1939 Rocket 2.8 21:48:14 10° SSE 21:52:11 81° ENE 21:56:07 10° N
DELTA 2 R/B(2) 3.4 21:53:36 10° SW 21:55:08 38° SSE 21:57:15 10° E
Delta 2 Rocket 3.7 21:52:14 10° SW 21:55:25 30° SSE 21:57:59 13° ESE
Cosmos 1674 2.8 21:54:37 10° S 21:58:22 58° E 22:02:10 10° NNE
Envisat 3.0 21:54:03 10° SSE 21:59:07 79° ENE 22:04:13 10° N
SPOT 5 2.9 21:55:18 10° SSE 21:59:39 60° ENE 22:04:21 10° N
Cosmos 1833 4.2 21:59:31 10° SSW 22:05:13 76° ESE 22:10:54 10° NNE
Meteor 2-2 Rocket 4.4 21:59:33 10° N 22:05:35 88° E 22:11:37 10° S
ERS-1 Rocket 3.7 22:01:05 10° S 22:05:58 52° W 22:10:54 10° NNW
Tiangong 1 2.8 22:05:33 10° S 22:07:00 16° SSE 22:07:00 16° SSE
Cosmos 2333 Rocket 4.3 22:05:46 10° NNE 22:08:35 14° NE 22:11:23 10° ENE
Cosmos 1300 4.2 22:06:04 10° NNE 22:09:09 23° ENE 22:11:00 16° ESE
Cosmos 1437 Rocket 2.8 22:05:29 10° NNW 22:09:17 78° W 22:13:01 11° S
Cosmos 1515 Rocket 4.0 22:04:58 10° NNW 22:09:22 63° W 22:13:43 10° S
USA 245 3.7 22:10:34 19° ESE 22:11:29 23° ENE 22:13:30 10° NNE
DELTA 2 R/B (1) 3.5 22:05:59 10° W 22:11:32 77° SSW 22:16:24 14° ESE
Cosmos 1437 3.0 22:08:48 13° S 22:11:37 51° E 22:14:49 10° NNE
Cosmos 1777 Rocket 4.5 22:10:56 10° SSW 22:16:09 66° WNW 22:21:24 10° NNE
PSLV R/B 3.1 22:16:12 18° S 22:18:24 86° WSW 22:21:29 10° NNW
Cosmos 2315 Rocket 4.1 22:14:37 10° N 22:20:45 60° E 22:25:34 17° SSE
COSMOS 2428 3.5 22:15:44 10° N 22:21:01 38° ENE 22:24:46 18° ESE
Cosmos 2266 Rocket 4.1 22:15:13 10° S 22:21:33 84° W 22:27:49 10° N
Sich 1 4.1 22:20:01 20° SE 22:22:01 28° E 22:25:46 10° NNE
AVUM R/B 4.1 22:20:13 10° SW 22:22:22 36° WNW 22:24:43 10° N
Cosmos 1633 Rocket 4.2 22:21:04 20° SE 22:22:55 27° E 22:26:34 10° NNE
Cosmos 2151 2.9 22:18:47 10° S 22:22:58 81° E 22:27:11 10° N
Cosmos 405 3.3 22:21:20 10° NNW 22:24:58 68° W 22:27:44 16° S
YAOGAN 6 2.6 22:23:28 22° SSE 22:25:43 68° ENE 22:29:20 10° N
NOSS 3-1 (C) 3.6 22:20:41 10° S 22:26:11 46° ESE 22:32:12 10° NE
Cosmos 304 Rocket 3.7 22:24:07 10° NNW 22:28:58 86° ENE 22:32:12 21° SSE
CZ-4C R/B 4.4 22:29:16 21° ESE 22:30:26 25° ENE 22:33:19 10° NNE
Cosmos 1328 3.7 22:28:08 13° S 22:31:37 86° E 22:35:36 10° N
H-2A R/B 3.2 22:29:35 18° ESE 22:32:33 30° ENE 22:37:13 10° N
Cosmos 1151 Rocket 3.6 22:30:46 10° NNW 22:34:59 56° W 22:38:40 13° S
Cosmos 1805 Rocket 3.6 22:33:35 18° S 22:36:47 66° E 22:41:12 10° NNE
Cosmos 2219 Rocket 3.5 22:32:48 10° N 22:37:29 27° NE 22:40:42 16° ESE
MetOp-A 4.3 22:33:52 15° S 22:38:17 72° WSW 22:43:40 10° NNW
ARGOS 3.2 22:37:03 22° SSE 22:40:34 70° ENE 22:45:57 10° N
SWAS 4.4 22:36:21 10° NNW 22:40:41 76° ENE 22:42:49 29° SSE
Landsat 7 4.5 22:39:24 24° SE 22:41:42 41° ENE 22:46:10 10° N
Cosmos 1244 Rocket 4.5 22:37:11 14° S 22:42:36 70° E 22:48:51 10° NNE
Cosmos 2237 4.4 22:37:06 10° NNW 22:42:47 61° ENE 22:46:02 26° SE
SPOT 1/Viking Rocket 3.5 22:41:07 22° SSE 22:44:32 90° ESE 22:49:43 10° NNW
Cosmos 1680 Rocket 3.7 22:41:00 10° NNW 22:46:13 71° WSW 22:49:36 22° S
Cosmos 2058 2.9 22:46:02 19° S 22:48:53 84° W 22:53:01 10° N
H-2A R/B 4.4 22:49:43 10° SW 22:53:07 21° W 22:56:32 10° NW
CZ-4B R/B 3.8 22:47:58 10° N 22:53:15 72° WNW 22:58:25 10° SSW
Cosmos 2219 3.3 22:49:43 10° SSW 22:55:28 79° WNW 23:01:16 10° NNE
Cosmos 1707 Rocket 3.5 22:51:42 10° N 22:56:05 88° E 22:58:03 32° S
Terra 2.5 22:55:46 29° ESE 22:57:34 41° ENE 23:02:02 10° N
SL-14 R/B 3.2 22:56:58 33° S 22:58:40 83° E 23:02:40 10° N
Cosmos 1666 Rocket 3.5 22:56:36 27° S 22:58:58 85° E 23:03:24 10° N
Cosmos 1703 3.7 22:58:43 39° ESE 22:59:19 43° E 23:03:02 10° NNE
Cosmos 1898 Rocket 3.4 22:56:18 24° S 22:59:25 64° ESE 23:04:34 10° NNE
Cosmos 1745 Rocket 4.2 22:57:28 27° SSE 23:00:35 51° E 23:06:33 10° NNE
Cosmos 2150 Rocket 4.0 22:57:11 21° S 23:00:50 68° ESE 23:06:17 10° NNE
Cosmos 1726 2.0 22:57:57 10° N 23:01:44 80° E 23:02:46 46° SSE
Meteor 1-27 4.2 22:56:20 10° N 23:02:03 87° W 23:05:12 28° S
Meteor 2-11 Rocket 4.4 22:56:15 10° N 23:02:26 89° ENE 23:06:03 26° S
Cosmos 1271 Rocket 3.1 22:58:50 10° N 23:02:33 47° ENE 23:03:14 41° ESE
Cosmos 2333 4.3 22:57:18 10° NNW 23:03:00 66° ENE 23:05:40 32° SE
Cosmos 2322 4.4 22:59:19 10° NW 23:04:47 46° WSW 23:08:14 21° S
Cosmos 2237 Rocket 3.4 23:01:04 10° N 23:06:04 30° ENE 23:08:42 21° E
Cosmos 858 Rocket 4.4 23:04:03 26° S 23:06:57 68° ESE 23:12:07 10° NNE
Cosmos 2082 4.4 23:07:20 30° ESE 23:08:18 32° ESE 23:13:20 10° NE
OAO 2 Rocket 4.1 23:07:28 10° SW 23:11:37 33° S 23:11:37 33° S
Cosmos 1470 Rocket 3.9 23:11:47 42° ESE 23:12:23 45° E 23:16:31 10° NNE
CZ-4 R/B 4.3 23:07:52 10° N 23:12:46 63° WNW 23:16:33 16° SSW
Cosmos 220 Rocket 4.2 23:12:13 46° SE 23:12:59 52° ESE 23:17:18 10° NNE
DMSP B5D2-2 4.2 23:08:13 10° NNE 23:13:21 56° E 23:15:08 38° SSE
Cosmos 1933 Rocket 3.9 23:13:06 41° ESE 23:13:49 45° E 23:18:05 10° NNE
Iridium 2 3.6 23:14:54 57° SE 23:15:24 65° E 23:19:14 10° N
IGS 5A 3.7 23:14:41 45° ESE 23:15:32 55° ENE 23:19:38 10° N
SeaSat 1 4.3 23:15:33 15° E 23:17:55 21° NE 23:21:32 10° N
Cosmos 2360 Rocket 3.4 23:14:06 10° NW 23:19:07 34° WSW 23:22:22 19° SSW
NOSS 3-1 (A) 3.4 23:23:03 10° SW 23:28:56 81° NW 23:35:27 10° NNE
Cosmos 1386 Rocket 4.4 23:27:31 39° SSE 23:29:40 63° E 23:35:37 10° NNE
NOSS 0 Rocket 4.1 23:24:54 10° NNW 23:31:02 64° ENE 23:33:20 38° SE
USA 32 4.2 23:26:41 10° N 23:31:56 70° W 23:34:02 36° SSW
Meteor 2-10 4.2 23:26:27 10° N 23:32:12 88° E 23:34:15 42° S
Meteor 1-4 Rocket 2.9 23:30:05 10° NNW 23:33:49 59° W 23:34:11 55° SW
Cosmos 2242 Rocket 4.1 23:33:29 10° NNW 23:37:52 55° W 23:39:06 40° SW
Cosmos 1626 2.2 23:40:11 66° ENE 23:40:11 66° ENE 23:43:39 10° NNE
Cosmos 2227 Rocket 2.1 23:42:28 47° S 23:44:03 69° ESE 23:49:43 10° NNE
ATLAS 2AS CENTAUR R/B 3.0 23:48:09 36° S 23:51:20 61° ESE 23:59:11 10° NE
Cosmos 2333 Rocket 2.2 23:47:59 10° NNW 23:53:46 82° ENE 23:55:11 53° SE
Cosmos 1862 Rocket 3.4 23:50:08 10° N 23:54:30 81° W 23:54:46 76° SSW
CARTOSAT-1 4.3 23:54:18 39° SW 23:54:59 43° W 23:59:07 10° NNW
